PUUANAHULU HI US current weather conditions

sailwx.info

Wind from 251 at 5 knots gusting 8

Air temperature 22.8° C
Dewpoint 14.9° C

Last reported at 2016-Apr-29 20:37 UTC.
Time now 2016-Apr-29 21:41 UTC

Location: N 19°50' W 155°46'.
View on Google Maps.

See reports from other nearby stations

  
Tides and Currents Weather Stations Pressure Air Temp Water Temp Dewpoint Dewpoint Depression Visibility Wind Speed Wind Dir Waves Ship Positions
date/time (UTC)wind fromknots sea level pressurealtimeterstation pressurevisibilityair tempwater tempwave heightnotes
2016-Apr-29 20:37 251 5 gusting 8 22.8
2016-Apr-29 19:37 288 4 gusting 11 21.7
2016-Apr-29 18:37 300 4 gusting 7 21.7
2016-Apr-29 17:37 191 2 gusting 6 20.6
2016-Apr-29 16:37 147 3 gusting 6 16.7
2016-Apr-29 15:37 158 5 gusting 7 15.6
2016-Apr-29 14:37 161 6 gusting 10 15.6
2016-Apr-29 13:37 231 6 gusting 10 16.7
2016-Apr-29 12:37 185 2 gusting 7 16.1
2016-Apr-29 11:37 139 2 gusting 4 15.6
2016-Apr-29 10:37 131 1 gusting 4 16.7
2016-Apr-29 09:37 164 1 gusting 3 17.8
2016-Apr-29 08:37 054 0 gusting 5 18.3
2016-Apr-29 07:37 050 1 gusting 5 18.3
2016-Apr-29 06:37 18.9
2016-Apr-29 05:37 016 3 gusting 8 19.4
2016-Apr-29 04:37 033 6 gusting 11 19.4
2016-Apr-29 03:37 301 3 gusting 9 20.6
2016-Apr-29 02:37 359 6 gusting 13 20.6
2016-Apr-29 01:37 262 4 gusting 8 23.3
2016-Apr-29 00:37 297 3 gusting 13 20.6
2016-Apr-28 23:37 273 8 gusting 15 22.8
2016-Apr-28 22:37 269 7 gusting 16 22.8
2016-Apr-28 21:37 279 7 gusting 14 22.8
2016-Apr-28 20:37 281 6 gusting 12 23.3
2016-Apr-28 19:37 285 4 gusting 11 22.8
2016-Apr-28 18:37 295 6 gusting 9 21.7
2016-Apr-28 17:37 067 1 gusting 13 21.7
2016-Apr-28 16:37 114 5 gusting 10 16.7
2016-Apr-28 15:37 095 4 gusting 9 15.6
2016-Apr-28 14:37 119 6 gusting 7 14.4
2016-Apr-28 13:37 134 4 gusting 6 15.0
2016-Apr-28 12:37 149 4 gusting 6 15.0
2016-Apr-28 11:37 149 4 gusting 6 15.6
2016-Apr-28 10:37 161 4 gusting 6 15.6
2016-Apr-28 09:37 142 3 gusting 12 16.7
2016-Apr-28 08:37 155 6 gusting 11 17.8
2016-Apr-28 07:37 167 3 gusting 8 17.2
2016-Apr-28 06:37 196 4 gusting 7 18.3
2016-Apr-28 05:37 165 2 gusting 8 18.9
2016-Apr-28 04:37 011 5 gusting 13 20.0
2016-Apr-28 03:37 010 4 gusting 10 22.2
2016-Apr-28 02:37 359 4 gusting 8 21.7
2016-Apr-28 01:37 281 5 gusting 9 21.1
2016-Apr-28 00:37 329 7 gusting 13 21.7
2016-Apr-27 23:37 352 6 gusting 14 23.3
2016-Apr-27 22:37 295 10 gusting 15 23.3
2016-Apr-27 21:37 282 7 gusting 14 24.4